sat.trackr.live / text

‹ back to catalog

ONEWEB-0474

NORAD 51654 · 2022-012AJ

PAYLOAD ACTIVE UNKNOWN

§ Identity

Operator
Country
UK
Launch date
2022-02-10
Launch site
FRGUI
Launch vehicle
Mass (kg)
RCS (m²)

Purposes: comms

External: N2YO · Heavens-Above · Gunter

§ Orbital elements

Epoch: 2026-09-20T01:57:50.297760Z

Period
109.89 min
Inclination
87.8903°
Eccentricity
0.0001957
Mean motion
13.10374463 rev/d
Perigee alt
1,220.2 km
Apogee alt
1,223.2 km
Semi-major
7,599.8 km
B*
1.2403e-3
RAAN
17.3753°
Arg perigee
96.8785°
Mean anomaly
263.2565°
Rev number
22,172

§ Raw data

ONEWEB-04741 51654U 22012AJ  26263.08183215  .00000446  00000+0  12403-2 0  99902 51654  87.8903  17.3753 0001957  96.8785 263.2565 13.10374463221724

JSON: /api/v1/satellites/51654 · /tle

For live sub-satellite position, see the globe view (requires WebGL).

§ Visibility from observer

Set your observer location to see the next 7 days of passes ≥ 10°. The values pass through the URL so the page stays shareable.

No JS? Fill the form by hand. The geolocation button needs JavaScript.